Temperature
17 17 17 17 17 17 17 17 17 17 17 17 17 17 17 17 16 16 16 16 16 16 16 16 16 16 16 16 16 15 15 15 15 15 15 15 15 15 15 15 15 15 15
18 17 17 17 17 17 17 17 17 17 17 17 17 17 17 17 16 16 16 16 16 16 16 16 16 16 16 15 15 15 15 15 15 15 15 15 15 15 15 15 15 15 15
17 17 17 17 17 17 17 17 17 17 17 17 17 17 17 16 16 16 16 16 16 16 16 16 16 16 16 15 15 15 15 15 15 15 15 15 15 15 15 15 15 14 14
17 17 16 16 16 17 17 17 17 17 17 17 17 17 17 16 16 16 16 16 16 16 16 16 16 15 15 15 15 15 15 15 15 15 15 15 15 14 14 14 14 14 14
17 16 16 16 16 16 16 16 17 17 17 17 17 17 16 16 16 16 16 16 16 16 15 15 15 15 15 15 15 15 15 15 15 15 15 15 14 14 14 14 14 14 14
16 16 16 16 16 16 16 16 16 16 16 16 16 16 16 16 16 16 16 16 16 16 15 15 15 15 15 15 15 15 15 15 15 15 15 14 14 14 14 14 14 14 14
16 16 16 16 16 16 16 16 16 16 16 16 16 16 16 16 16 16 16 16 16 15 15 15 15 15 15 15 15 15 15 15 15 14 14 14 14 14 14 14 14 14 14
16 16 15 15 15 16 16 16 16 16 16 16 16 16 16 16 15 15 15 15 15 15 15 15 15 15 15 15 15 15 15 15 14 14 14 14 14 14 13 13 13 13 13
15 15 15 15 15 15 15 16 16 16 16 16 16 16 16 15 15 15 15 15 15 15 15 15 15 15 15 15 15 14 14 14 14 14 14 14 14 14 13 13 13 13 13
15 15 15 15 15 15 15 15 15 15 15 15 15 15 15 15 15 15 15 15 15 15 15 15 15 15 14 14 14 14 14 14 14 14 14 14 14 13 13 13 13 13 13
15 15 15 15 15 15 15 15 15 15 15 15 15 15 15 15 15 15 15 14 14 14 14 14 14 14 14 14 14 14 14 14 14 14 13 13 13 13 13 13 13 13 13
14 14 14 15 15 15 15 15 15 15 15 15 15 15 15 15 15 14 14 14 14 14 14 14 14 14 14 14 14 13 13 13 13 13 13 13 13 13 13 13 12 12 12
14 14 14 14 14 14 15 15 15 15 15 14 14 14 14 14 14 14 14 14 14 14 14 14 14 14 13 13 13 13 13 13 13 13 13 13 13 12 12 12 12 12 12
14 14 14 14 14 14 14 14 14 14 14 14 14 14 14 14 14 14 14 14 14 14 14 14 13 13 13 13 13 13 13 13 13 13 13 12 12 12 12 12 12 12 12
14 14 14 14 14 14 14 14 14 14 14 14 14 14 14 14 14 14 14 14 14 13 13 13 13 13 13 13 13 12 12 12 12 12 12 12 12 12 12 11 11 11 11
14 14 14 14 13 13 13 13 14 14 14 14 14 14 14 13 13 13 13 13 13 13 13 13 13 13 12 12 12 12 12 12 12 12 12 12 12 11 11 11 11 11 11
14 13 13 13 13 13 13 13 13 13 13 13 13 13 13 13 13 13 13 13 13 12 12 12 12 12 12 12 12 12 12 12 12 11 11 11 11 11 11 11 11 11 10
13 13 13 13 13 13 13 13 13 13 13 13 13 13 13 13 13 12 12 12 12 12 12 12 12 11 11 11 11 11 11 11 11 11 11 11 11 11 10 10 10 10 10
13 13 13 13 13 13 12 12 12 12 13 13 13 12 12 12 12 12 12 12 12 12 11 11 11 11 11 11 11 11 11 11 11 11 11 10 10 10 10 10 10 10 10
13 13 13 13 12 12 12 12 12 12 12 12 12 12 12 12 12 11 11 11 11 11 11 11 11 10 10 10 10 10 10 10 10 10 10 10 10 10 10 9 9 9 9
12 12 12 12 12 12 12 12 12 12 12 12 11 11 11 11 11 11 11 11 11 11 11 10 10 10 10 10 10 10 10 10 10 9 9 9 9 9 9 9 9 8 8
12 12 12 12 12 12 12 12 12 12 11 11 11 11 11 11 11 11 11 10 10 10 10 10 10 9 9 9 8 8 8 8 9 9 9 9 9 9 8 8 8 8 8
12 12 12 12 12 11 11 11 11 11 11 11 11 10 10 10 10 10 10 10 10 10 9 9 9 9 9 9 8 8 7 7 7 8 8 8 8 8 8 8 7 7 7
12 12 12 11 11 11 11 11 11 11 11 11 10 10 10 10 10 10 9 9 9 9 9 9 9 8 8 8 8 8 7 7 6 6 7 7 7 7 7 7 7 7 7
12 12 11 11 11 11 11 11 10 10 10 10 10 9 9 9 9 9 9 9 9 9 8 8 8 8 8 8 7 7 7 7 6 6 6 6 7 7 7 7 6 6 6
11 11 11 11 11 10 10 10 10 10 10 9 9 9 9 9 9 8 8 8 8 8 8 8 7 7 7 7 7 7 6 6 6 5 5 5 6 6 6 6 6 6 6
Wind_Speed
4 6 11 13 14 14 14 15 15 16 16 16 17 17 17 16 16 15 15 14 14 13 13 13 13 13 13 13 13 13 13 12 11 11 11 11 11 11 10 10 10 9 10
7 9 14 14 15 15 15 15 15 16 16 16 16 16 16 16 15 15 15 14 14 14 14 13 13 13 13 13 13 12 12 12 12 11 10 10 9 9 9 9 8 8 8
8 10 14 15 15 15 15 15 15 15 16 16 16 15 16 15 15 15 14 14 14 13 13 13 13 12 12 12 12 12 12 11 11 11 10 9 8 8 8 8 8 7 7
9 11 12 15 15 15 16 15 15 15 15 15 15 15 15 15 15 15 14 14 14 13 13 13 12 12 12 12 11 11 11 10 10 10 8 7 6 6 7 7 7 6 6
8 10 13 15 15 15 15 15 15 15 14 14 14 14 15 14 14 14 13 13 13 13 12 12 12 11 11 11 11 11 10 10 10 9 8 7 6 5 6 6 6 6 5
8 10 13 15 15 15 15 15 14 14 14 14 14 14 14 14 13 13 12 12 12 12 12 11 11 10 10 10 10 9 9 9 9 8 7 6 5 4 5 5 5 5 4
7 9 13 15 15 15 14 14 14 13 13 13 13 13 13 13 12 12 11 11 11 11 10 10 10 9 9 9 8 8 8 8 8 7 5 4 4 4 3 3 3 3 4
8 8 11 14 14 14 14 13 13 13 12 12 12 12 12 12 12 11 11 10 10 10 9 9 8 8 8 7 7 7 8 7 7 5 5 4 3 3 2 3 3 3 3
7 8 8 11 12 13 13 12 12 12 12 12 11 11 11 11 11 10 10 10 9 9 8 8 8 7 7 7 7 7 7 6 6 4 4 3 4 4 3 2 2 2 2
6 6 7 9 10 10 11 12 12 11 11 11 11 11 10 10 9 9 9 9 8 8 8 7 7 7 6 6 6 6 6 5 5 4 3 3 4 4 4 4 4 4 4
6 5 6 7 8 10 10 10 10 10 10 10 10 10 9 9 8 8 8 8 7 7 7 6 6 6 6 6 6 5 5 4 4 3 3 4 4 4 5 5 4 5 5
6 4 4 6 7 8 8 9 9 9 9 9 9 9 9 8 8 7 7 7 6 6 5 5 5 5 5 5 4 4 3 3 3 2 3 4 4 5 5 5 5 6 6
6 5 4 5 6 7 7 7 7 8 8 8 8 8 8 8 8 7 6 5 5 5 5 4 4 4 4 3 3 2 2 2 2 2 3 5 5 5 6 7 7 7 7
7 6 5 5 6 6 7 6 6 6 6 6 6 7 7 6 5 5 5 5 5 4 4 4 3 3 2 2 1 1 1 1 2 3 4 5 6 6 7 8 8 8 8
7 6 5 5 5 6 6 5 5 5 5 6 6 6 7 5 3 3 3 4 4 4 3 3 2 2 2 2 1 1 1 2 2 3 4 5 6 7 8 8 9 9 9
8 7 5 6 5 6 4 4 4 4 5 5 5 5 6 6 4 3 2 2 2 2 2 2 1 1 1 1 1 1 1 2 2 3 4 5 6 7 8 9 9 10 10
8 7 6 6 5 5 5 4 4 5 5 4 4 5 5 5 5 4 2 1 1 1 2 2 2 2 1 2 2 2 2 2 2 3 4 4 5 6 8 9 10 11 11
7 7 6 6 6 5 4 4 4 4 5 4 4 4 4 5 5 4 2 1 1 1 1 1 1 1 1 2 2 2 2 2 3 3 3 4 4 5 6 9 10 11 12
8 8 7 6 6 5 4 4 3 4 3 3 4 4 4 4 4 4 2 1 1 1 1 0 0 0 1 1 2 2 2 2 2 3 3 4 4 4 5 7 9 11 12
7 7 7 6 5 5 4 3 2 2 1 2 2 3 3 3 3 3 2 1 2 1 0 0 1 0 1 1 2 3 3 3 2 2 3 3 4 5 6 7 7 9 12
6 7 7 7 6 5 3 3 2 1 1 0 0 1 2 3 3 3 1 1 1 1 1 1 1 0 1 1 1 2 3 3 2 2 2 2 3 4 5 6 7 7 9
8 8 8 7 7 6 4 3 2 2 1 1 0 1 1 1 2 2 2 2 1 1 1 1 1 1 0 1 1 1 3 4 3 3 2 3 3 3 4 6 7 8 9
8 9 9 8 7 6 5 4 3 3 2 1 0 1 1 0 1 2 2 2 1 2 2 2 2 2 1 1 0 1 1 3 4 3 2 3 3 3 4 4 6 8 9
8 8 8 8 7 6 7 6 6 4 3 3 2 1 1 1 0 1 2 2 2 2 2 2 2 2 2 2 1 1 2 2 2 4 3 3 3 4 4 5 5 7 9
6 7 7 7 6 6 7 7 6 4 2 1 1 1 0 1 1 1 1 1 2 2 2 2 2 2 2 3 2 2 1 2 2 3 5 5 4 4 4 4 4 5 8
4 5 6 7 6 6 6 6 6 6 4 3 2 1 0 1 1 1 1 1 1 2 2 3 3 3 3 3 3 3 2 2 2 2 4 7 7 5 4 4 4 4 6
Wind_Direction
172 170 150 139 135 130 124 119 115 112 110 111 111 111 112 111 109 108 107 105 103 101 100 99 98 95 92 91 89 87 86 85 84 82 83 85 85 85 85 84 81 79 82
152 156 146 141 138 133 128 123 118 115 113 111 111 111 111 109 108 107 106 105 102 100 98 96 95 94 90 88 87 86 84 83 82 81 79 78 81 84 87 89 89 87 84
139 144 144 141 138 134 129 125 121 118 115 115 113 113 111 108 106 104 104 101 99 98 95 93 92 91 90 89 88 85 84 83 81 78 73 67 73 82 84 85 87 87 86
135 137 141 141 138 134 131 129 125 120 117 116 115 113 112 110 106 104 101 100 98 95 93 93 90 89 87 87 86 85 83 82 81 78 68 62 62 80 81 82 79 78 80
126 134 140 139 137 134 132 130 127 123 120 118 116 114 113 111 109 106 103 101 98 96 94 92 89 88 87 86 84 82 81 81 79 74 64 56 52 72 81 82 75 71 70
121 130 139 138 137 135 133 130 126 124 122 120 118 117 115 112 110 108 104 102 101 98 95 92 89 87 85 85 85 81 81 79 73 68 59 51 45 61 78 79 73 69 60
120 127 138 138 136 134 132 130 127 124 122 122 120 119 117 113 111 108 105 104 102 100 98 95 90 88 86 83 81 78 78 77 71 63 51 42 40 45 61 68 61 62 53
120 117 131 134 133 132 131 129 127 125 122 121 121 120 119 116 113 110 106 104 100 98 96 94 91 87 86 83 79 77 73 72 69 59 39 25 21 16 33 44 37 30 30
107 107 111 122 127 129 130 128 126 124 121 120 118 117 117 117 114 111 107 104 101 99 95 91 86 83 84 82 80 76 73 67 64 53 35 19 12 2 357 2 355 343 342
96 100 105 109 115 118 122 124 123 122 120 118 115 113 111 110 110 110 107 104 104 100 96 90 83 79 78 75 72 72 73 64 56 44 27 11 356 347 343 342 336 323 316
109 100 107 108 109 112 115 118 116 116 115 114 111 109 103 97 97 99 101 103 104 100 97 90 82 77 75 68 64 64 70 62 50 31 8 354 345 334 326 323 322 321 316
147 131 117 116 113 111 110 105 103 104 105 105 105 104 99 96 94 94 94 96 99 97 93 87 80 75 70 60 53 54 56 48 39 6 344 343 336 331 323 316 312 308 309
154 140 127 125 118 113 110 108 101 101 100 101 106 108 104 96 91 86 83 80 80 81 77 73 70 67 67 61 51 42 39 38 11 341 332 337 334 327 320 314 311 307 306
150 144 135 125 119 115 116 114 112 108 108 107 110 115 111 99 90 86 81 76 73 72 73 70 69 65 63 56 57 42 22 356 333 324 324 330 326 322 320 317 311 309 309
156 153 148 133 127 123 116 118 116 117 120 121 118 119 121 115 110 98 88 83 77 74 74 71 68 60 55 36 28 24 1 325 316 321 323 328 328 325 324 321 317 313 312
169 164 154 144 135 129 124 124 125 125 125 122 122 125 126 125 122 114 104 89 78 73 75 80 70 57 35 31 1 351 321 309 308 318 323 326 331 331 329 326 322 318 318
174 166 160 153 138 133 132 134 132 135 132 130 133 133 130 129 129 127 124 116 86 79 75 67 49 47 25 10 339 330 327 318 312 313 319 319 327 329 327 324 321 318 316
167 165 165 160 148 144 139 136 134 139 139 141 142 139 139 139 137 128 130 150 110 90 82 90 48 25 359 350 330 316 316 321 310 306 313 316 322 322 325 325 322 320 319
171 167 166 158 154 152 140 131 132 134 137 145 144 143 148 147 146 137 143 147 119 107 113 136 38 40 325 332 314 306 303 303 301 307 317 316 313 313 317 323 322 321 321
167 164 162 154 150 140 122 107 98 98 92 122 143 158 159 156 153 145 148 139 119 121 161 183 202 309 269 301 321 318 304 290 289 294 301 307 307 304 309 316 318 319 320
161 164 165 158 154 144 135 137 135 147 146 83 149 166 170 168 163 158 164 159 151 174 207 207 198 203 323 339 4 327 312 294 287 284 292 295 300 299 308 311 309 309 311
177 176 171 169 166 165 163 153 146 147 157 174 113 97 138 169 176 178 178 190 186 187 200 198 166 184 277 46 92 1 327 321 307 285 284 280 290 310 312 311 308 307 305
182 183 181 177 170 165 149 123 99 84 71 69 11 316 312 235 205 190 188 184 193 189 212 219 195 182 213 260 181 169 219 268 303 291 282 285 292 295 302 307 306 306 306
192 184 178 173 166 161 153 152 151 159 181 205 206 238 296 299 279 218 202 195 199 207 221 223 202 199 185 228 264 227 221 229 270 301 299 288 289 290 290 302 305 303 303
185 176 172 164 161 159 161 163 160 159 166 160 153 152 330 340 344 323 227 206 214 218 225 230 218 211 204 208 216 226 246 264 242 260 295 304 302 279 279 286 290 295 301
156 158 157 155 158 160 160 160 161 160 158 152 153 169 264 321 325 332 307 246 235 227 227 230 229 225 223 219 222 220 219 229 240 246 279 298 299 294 289 277 279 287 298
Height
1506 1509 1511 1514 1516 1518 1520 1521 1523 1524 1526 1527 1529 1530 1531 1532 1534 1535 1536 1536 1537 1538 1538 1539 1540 1540 1541 1541 1542 1542 1542 1543 1543 1543 1544 1544 1544 1544 1544 1545 1545 1545 1545
1505 1508 1511 1514 1516 1519 1521 1522 1524 1525 1527 1528 1529 1531 1532 1533 1534 1535 1536 1537 1538 1539 1539 1540 1541 1541 1541 1542 1542 1543 1543 1543 1544 1544 1544 1545 1545 1545 1545 1545 1545 1545 1545
1505 1508 1511 1514 1517 1519 1521 1523 1525 1526 1528 1529 1530 1531 1533 1534 1535 1536 1537 1538 1538 1539 1540 1541 1541 1542 1542 1542 1543 1543 1543 1544 1544 1544 1545 1545 1545 1546 1546 1546 1546 1546 1546
1505 1508 1511 1514 1517 1519 1521 1523 1525 1527 1528 1529 1531 1532 1533 1534 1535 1536 1537 1538 1539 1540 1540 1541 1542 1542 1542 1543 1543 1543 1544 1544 1545 1545 1545 1546 1546 1546 1546 1546 1546 1546 1546
1506 1508 1511 1514 1517 1520 1522 1524 1526 1527 1529 1530 1531 1532 1534 1535 1536 1537 1538 1539 1540 1540 1541 1541 1542 1542 1543 1543 1543 1544 1544 1544 1545 1545 1545 1546 1546 1546 1546 1546 1546 1546 1546
1506 1509 1512 1515 1517 1520 1522 1524 1526 1527 1529 1530 1532 1533 1534 1535 1536 1537 1538 1539 1540 1541 1541 1542 1542 1543 1543 1543 1544 1544 1544 1544 1545 1545 1545 1545 1546 1546 1546 1546 1546 1546 1546
1506 1509 1512 1515 1518 1520 1522 1524 1526 1528 1529 1530 1532 1533 1534 1535 1536 1537 1538 1539 1540 1540 1541 1542 1542 1543 1543 1543 1544 1544 1544 1544 1544 1545 1545 1545 1545 1546 1546 1546 1546 1545 1545
1507 1510 1513 1515 1518 1520 1522 1524 1526 1528 1529 1530 1532 1533 1534 1535 1536 1537 1538 1539 1540 1540 1541 1541 1542 1542 1543 1543 1543 1543 1544 1544 1544 1544 1544 1545 1545 1545 1545 1545 1545 1545 1544
1508 1510 1513 1515 1518 1520 1522 1524 1526 1528 1529 1530 1532 1533 1534 1535 1536 1537 1538 1539 1539 1540 1540 1541 1541 1542 1542 1542 1543 1543 1543 1543 1543 1544 1544 1544 1544 1544 1544 1544 1543 1543 1543
1508 1510 1513 1515 1517 1519 1522 1524 1526 1527 1529 1530 1531 1533 1534 1534 1535 1536 1537 1538 1539 1539 1540 1540 1540 1541 1541 1542 1542 1542 1542 1542 1542 1543 1543 1543 1543 1543 1542 1542 1542 1542 1541
1507 1510 1512 1515 1517 1519 1521 1523 1525 1527 1528 1530 1531 1532 1533 1534 1535 1536 1537 1538 1538 1539 1539 1539 1540 1540 1540 1541 1541 1541 1541 1541 1541 1541 1541 1541 1541 1541 1541 1541 1540 1540 1539
1506 1509 1511 1514 1516 1518 1521 1522 1524 1526 1528 1529 1531 1532 1533 1534 1535 1536 1536 1537 1538 1538 1538 1539 1539 1539 1539 1540 1540 1540 1540 1540 1540 1540 1540 1540 1540 1539 1539 1539 1538 1538 1537
1505 1508 1510 1513 1516 1518 1520 1522 1524 1525 1527 1529 1530 1531 1532 1533 1534 1535 1536 1536 1537 1537 1537 1538 1538 1538 1538 1538 1538 1538 1538 1538 1538 1538 1538 1538 1537 1537 1537 1536 1536 1536 1535
1504 1507 1509 1512 1515 1517 1519 1521 1523 1525 1526 1528 1529 1530 1531 1532 1533 1534 1534 1535 1535 1536 1536 1536 1536 1537 1537 1537 1537 1537 1537 1537 1536 1536 1536 1536 1535 1535 1534 1534 1533 1533 1532
1503 1506 1508 1511 1513 1516 1518 1520 1522 1524 1525 1527 1528 1529 1530 1531 1532 1532 1533 1533 1534 1534 1534 1534 1535 1535 1535 1535 1535 1535 1535 1535 1534 1534 1534 1533 1533 1532 1532 1531 1530 1530 1529
1501 1504 1507 1510 1512 1515 1517 1519 1521 1522 1524 1525 1527 1528 1529 1530 1530 1531 1531 1531 1532 1532 1532 1532 1533 1533 1533 1533 1533 1533 1532 1532 1532 1532 1531 1531 1530 1529 1529 1528 1527 1526 1525
1500 1503 1506 1508 1511 1513 1515 1517 1519 1521 1523 1524 1525 1526 1527 1528 1528 1529 1529 1530 1530 1530 1530 1530 1530 1531 1530 1530 1530 1530 1530 1530 1529 1529 1528 1528 1527 1527 1526 1525 1524 1523 1522
1498 1501 1504 1506 1509 1511 1513 1515 1517 1519 1521 1522 1523 1524 1525 1526 1527 1527 1527 1528 1528 1528 1528 1528 1528 1528 1528 1527 1527 1527 1527 1527 1526 1526 1525 1525 1524 1523 1522 1521 1520 1519 1518
1496 1499 1502 1504 1507 1509 1511 1514 1516 1517 1519 1520 1521 1522 1523 1524 1524 1525 1525 1526 1526 1526 1526 1525 1525 1525 1524 1524 1524 1524 1524 1523 1523 1522 1522 1521 1521 1520 1519 1517 1516 1515 1513
1493 1496 1499 1502 1504 1507 1509 1511 1513 1515 1516 1518 1519 1520 1521 1521 1522 1522 1523 1523 1523 1523 1523 1523 1522 1522 1522 1521 1520 1520 1520 1520 1519 1519 1518 1518 1517 1516 1515 1514 1512 1510 1509
1490 1493 1496 1499 1501 1504 1506 1508 1510 1512 1513 1515 1516 1517 1518 1519 1519 1520 1520 1520 1520 1520 1520 1520 1519 1519 1519 1518 1517 1516 1515 1515 1515 1515 1514 1514 1513 1512 1511 1510 1508 1506 1504
1486 1489 1492 1495 1498 1501 1503 1505 1507 1509 1511 1512 1513 1514 1515 1516 1516 1517 1517 1517 1517 1517 1517 1517 1516 1516 1515 1515 1515 1513 1511 1511 1510 1510 1510 1509 1509 1508 1507 1505 1504 1502 1500
1482 1485 1488 1491 1495 1498 1500 1503 1504 1506 1507 1509 1510 1511 1512 1512 1513 1514 1514 1514 1514 1514 1514 1514 1514 1513 1512 1513 1513 1513 1511 1508 1506 1505 1505 1505 1504 1503 1502 1501 1499 1497 1496
1478 1482 1485 1488 1491 1494 1497 1499 1501 1502 1503 1505 1506 1508 1509 1510 1510 1510 1511 1511 1511 1511 1511 1511 1511 1510 1510 1509 1509 1510 1510 1508 1505 1501 1500 1501 1500 1499 1498 1497 1495 1493 1491
1475 1478 1481 1485 1488 1491 1493 1496 1498 1499 1501 1502 1504 1505 1506 1506 1507 1507 1507 1508 1508 1508 1508 1508 1507 1507 1507 1506 1506 1506 1506 1505 1504 1501 1496 1495 1495 1495 1494 1492 1490 1489 1487
1471 1475 1478 1481 1484 1487 1490 1492 1494 1496 1497 1499 1500 1501 1502 1503 1503 1504 1504 1504 1504 1504 1504 1504 1504 1504 1503 1503 1503 1502 1502 1501 1500 1498 1495 1491 1490 1489 1488 1487 1486 1485 1483